QPF
0.02 0.02 0.01 0.01 0.01 0.01 0.02 0.02 0.02 0.02 0.02 0.02 0.02 0.03 0.03 0.03 0.04 0.02 0.02 0.02 0.02 0.02 0.01 0.01 0.01 0.01 0.01 0.01 0.01 0.01 0.01 0.01 0.01 0.01 0.01 0.01 0.01 0.02
0.02 0.01 0.01 0.00 0.00 0.01 0.01 0.01 0.01 0.01 0.01 0.01 0.01 0.02 0.03 0.04 0.04 0.02 0.02 0.02 0.02 0.02 0.02 0.02 0.02 0.02 0.02 0.02 0.02 0.01 0.01 0.00 0.00 0.00 0.00 0.00 0.01 0.01
0.01 0.00 0.00 0.00 0.00 0.00 0.00 0.00 0.00 0.00 0.01 0.01 0.01 0.02 0.02 0.03 0.03 0.02 0.02 0.02 0.02 0.01 0.01 0.01 0.01 0.01 0.01 0.01 0.01 0.01 0.00 0.00 0.00 0.00 0.00 0.00 0.01 0.01
0.01 0.00 0.00 0.00 0.00 0.00 0.00 0.00 0.00 0.00 0.00 0.01 0.01 0.01 0.01 0.02 0.02 0.02 0.02 0.02 0.01 0.01 0.00 0.00 0.00 0.00 0.00 0.00 0.00 0.00 0.00 0.00 0.00 0.00 0.00 0.00 0.01 0.01
0.01 0.01 0.01 0.00 0.00 0.00 0.00 0.00 0.00 0.00 0.00 0.00 0.01 0.01 0.01 0.01 0.01 0.01 0.01 0.01 0.00 0.00 0.00 0.00 0.00 0.00 0.00 0.00 0.00 0.00 0.00 0.00 0.00 0.00 0.00 0.00 0.00 0.01
0.00 0.00 0.00 0.00 0.00 0.00 0.00 0.00 0.00 0.00 0.00 0.00 0.00 0.01 0.01 0.01 0.01 0.01 0.01 0.01 0.00 0.00 0.00 0.00 0.00 0.00 0.00 0.00 0.00 0.00 0.00 0.00 0.00 0.00 0.01 0.01 0.01 0.01
0.00 0.00 0.00 0.00 0.00 0.00 0.00 0.00 0.00 0.00 0.00 0.00 0.00 0.01 0.01 0.02 0.02 0.01 0.01 0.01 0.01 0.01 0.01 0.01 0.01 0.02 0.02 0.01 0.00 0.00 0.00 0.00 0.00 0.00 0.00 0.00 0.01 0.01
0.01 0.01 0.00 0.00 0.00 0.00 0.00 0.00 0.00 0.00 0.00 0.01 0.01 0.01 0.02 0.02 0.02 0.02 0.02 0.02 0.02 0.01 0.01 0.01 0.01 0.03 0.03 0.02 0.00 0.00 0.00 0.00 0.00 0.00 0.00 0.00 0.00 0.00
0.01 0.01 0.00 0.00 0.00 0.00 0.00 0.00 0.00 0.00 0.00 0.00 0.01 0.01 0.02 0.02 0.01 0.01 0.02 0.01 0.02 0.01 0.01 0.02 0.02 0.03 0.02 0.01 0.00 0.00 0.00 0.00 0.00 0.00 0.00 0.00 0.00 0.00
0.00 0.01 0.01 0.01 0.00 0.00 0.00 0.01 0.01 0.00 0.00 0.00 0.01 0.01 0.01 0.01 0.01 0.01 0.01 0.02 0.03 0.03 0.01 0.02 0.03 0.03 0.03 0.03 0.00 0.00 0.00 0.00 0.00 0.00 0.00 0.00 0.00 0.00
0.01 0.00 0.00 0.01 0.00 0.00 0.00 0.01 0.02 0.01 0.00 0.00 0.00 0.00 0.00 0.00 0.00 0.01 0.02 0.03 0.04 0.04 0.02 0.02 0.03 0.02 0.03 0.03 0.01 0.00 0.00 0.00 0.00 0.00 0.00 0.00 0.00 0.00
0.01 0.01 0.00 0.00 0.00 0.00 0.01 0.02 0.02 0.02 0.01 0.01 0.01 0.01 0.01 0.01 0.00 0.01 0.03 0.03 0.04 0.05 0.04 0.03 0.02 0.01 0.02 0.02 0.01 0.01 0.01 0.01 0.00 0.00 0.00 0.00 0.00 0.01
0.01 0.01 0.00 0.00 0.00 0.00 0.00 0.01 0.01 0.00 0.01 0.01 0.01 0.02 0.02 0.03 0.03 0.02 0.02 0.03 0.04 0.05 0.03 0.02 0.02 0.02 0.03 0.03 0.01 0.01 0.01 0.02 0.02 0.02 0.01 0.00 0.00 0.00
0.01 0.01 0.00 0.00 0.00 0.00 0.00 0.01 0.00 0.00 0.01 0.02 0.02 0.03 0.03 0.03 0.03 0.01 0.01 0.02 0.03 0.03 0.02 0.02 0.02 0.03 0.03 0.03 0.02 0.01 0.01 0.02 0.02 0.02 0.03 0.01 0.01 0.00
0.01 0.00 0.00 0.00 0.01 0.01 0.01 0.00 0.01 0.01 0.02 0.02 0.02 0.02 0.02 0.01 0.01 0.01 0.01 0.01 0.01 0.00 0.00 0.00 0.01 0.02 0.03 0.03 0.02 0.02 0.01 0.01 0.01 0.02 0.03 0.03 0.02 0.01
0.00 0.00 0.01 0.01 0.01 0.01 0.01 0.01 0.01 0.01 0.01 0.01 0.01 0.01 0.01 0.01 0.01 0.02 0.02 0.02 0.02 0.01 0.00 0.00 0.00 0.02 0.02 0.02 0.02 0.01 0.01 0.01 0.01 0.01 0.02 0.03 0.02 0.01
0.00 0.01 0.01 0.01 0.02 0.02 0.01 0.01 0.00 0.00 0.00 0.00 0.00 0.00 0.01 0.01 0.01 0.00 0.00 0.00 0.01 0.01 0.01 0.00 0.00 0.00 0.01 0.01 0.01 0.01 0.01 0.01 0.01 0.01 0.02 0.03 0.02 0.01
0.00 0.01 0.01 0.01 0.02 0.01 0.01 0.00 0.00 0.00 0.00 0.00 0.00 0.00 0.00 0.00 0.01 0.01 0.01 0.01 0.01 0.01 0.00 0.00 0.01 0.02 0.02 0.02 0.01 0.00 0.01 0.01 0.01 0.01 0.01 0.02 0.02 0.02
0.00 0.01 0.01 0.01 0.01 0.00 0.00 0.00 0.00 0.00 0.00 0.00 0.00 0.00 0.00 0.00 0.00 0.01 0.01 0.01 0.01 0.00 0.00 0.00 0.00 0.01 0.02 0.02 0.01 0.00 0.01 0.01 0.02 0.02 0.01 0.01 0.02 0.01
0.01 0.01 0.01 0.01 0.00 0.00 0.00 0.00 0.00 0.00 0.00 0.00 0.00 0.00 0.00 0.00 0.00 0.00 0.00 0.00 0.00 0.00 0.00 0.00 0.00 0.00 0.01 0.01 0.01 0.01 0.00 0.00 0.01 0.01 0.01 0.01 0.01 0.01
0.00 0.00 0.01 0.00 0.00 0.00 0.00 0.00 0.00 0.00 0.00 0.00 0.00 0.00 0.00 0.00 0.00 0.00 0.00 0.00 0.00 0.00 0.00 0.00 0.00 0.00 0.00 0.01 0.01 0.01 0.00 0.00 0.00 0.00 0.01 0.01 0.01 0.01
0.00 0.00 0.00 0.00 0.00 0.00 0.00 0.00 0.00 0.00 0.00 0.00 0.00 0.00 0.00 0.00 0.00 0.00 0.00 0.00 0.00 0.00 0.00 0.00 0.00 0.00 0.00 0.01 0.01 0.01 0.00 0.00 0.00 0.00 0.00 0.00 0.00 0.00
0.00 0.00 0.00 0.00 0.00 0.00 0.00 0.00 0.00 0.00 0.00 0.00 0.00 0.00 0.00 0.00 0.00 0.00 0.00 0.00 0.00 0.00 0.00 0.00 0.00 0.00 0.00 0.00 0.00 0.00 0.00 0.00 0.00 0.00 0.00 0.00 0.00 0.00
MSLP
1022.94 1022.85 1022.71 1022.53 1022.34 1022.15 1021.99 1021.86 1021.77 1021.72 1021.71 1021.73 1021.76 1021.80 1021.84 1021.86 1021.87 1021.86 1021.83 1021.78 1021.71 1021.61 1021.49 1021.35 1021.18 1020.99 1020.78 1020.55 1020.30 1020.02 1019.72 1019.40 1019.05 1018.68 1018.30 1017.92 1017.54 1017.19
1023.46 1023.38 1023.25 1023.07 1022.87 1022.66 1022.46 1022.28 1022.14 1022.03 1021.95 1021.89 1021.85 1021.80 1021.75 1021.69 1021.61 1021.52 1021.42 1021.32 1021.20 1021.08 1020.96 1020.84 1020.71 1020.59 1020.45 1020.30 1020.13 1019.93 1019.69 1019.39 1019.05 1018.67 1018.25 1017.80 1017.35 1016.93
1023.88 1023.81 1023.69 1023.52 1023.32 1023.11 1022.90 1022.70 1022.53 1022.37 1022.24 1022.11 1021.98 1021.85 1021.71 1021.56 1021.40 1021.23 1021.05 1020.88 1020.72 1020.57 1020.44 1020.34 1020.26 1020.20 1020.15 1020.10 1020.02 1019.91 1019.75 1019.51 1019.20 1018.81 1018.35 1017.85 1017.33 1016.82
1024.21 1024.15 1024.04 1023.88 1023.70 1023.50 1023.30 1023.10 1022.91 1022.72 1022.54 1022.36 1022.17 1021.96 1021.75 1021.51 1021.27 1021.02 1020.77 1020.53 1020.32 1020.14 1020.00 1019.91 1019.86 1019.86 1019.88 1019.92 1019.94 1019.92 1019.83 1019.66 1019.38 1019.00 1018.52 1017.97 1017.39 1016.79
1024.50 1024.42 1024.31 1024.17 1024.01 1023.84 1023.65 1023.46 1023.26 1023.06 1022.85 1022.63 1022.39 1022.13 1021.85 1021.55 1021.24 1020.92 1020.61 1020.32 1020.05 1019.84 1019.67 1019.57 1019.54 1019.57 1019.64 1019.73 1019.82 1019.88 1019.85 1019.73 1019.49 1019.13 1018.65 1018.07 1017.43 1016.78
1024.75 1024.65 1024.54 1024.42 1024.28 1024.13 1023.97 1023.79 1023.60 1023.39 1023.16 1022.91 1022.63 1022.33 1022.00 1021.65 1021.29 1020.93 1020.57 1020.22 1019.91 1019.65 1019.45 1019.32 1019.28 1019.30 1019.38 1019.50 1019.63 1019.72 1019.74 1019.66 1019.46 1019.11 1018.64 1018.05 1017.39 1016.71
1024.98 1024.86 1024.75 1024.64 1024.52 1024.40 1024.26 1024.10 1023.91 1023.70 1023.46 1023.18 1022.87 1022.54 1022.18 1021.80 1021.40 1021.00 1020.60 1020.22 1019.87 1019.56 1019.32 1019.15 1019.06 1019.05 1019.11 1019.21 1019.33 1019.43 1019.47 1019.41 1019.22 1018.90 1018.44 1017.87 1017.22 1016.54
1025.19 1025.06 1024.95 1024.85 1024.75 1024.65 1024.53 1024.38 1024.20 1023.97 1023.71 1023.41 1023.08 1022.72 1022.34 1021.93 1021.52 1021.10 1020.68 1020.27 1019.89 1019.54 1019.25 1019.02 1018.88 1018.81 1018.81 1018.87 1018.95 1019.03 1019.05 1018.99 1018.82 1018.52 1018.09 1017.55 1016.94 1016.29
1025.35 1025.23 1025.13 1025.05 1024.97 1024.89 1024.77 1024.63 1024.44 1024.20 1023.92 1023.59 1023.23 1022.85 1022.45 1022.03 1021.61 1021.18 1020.75 1020.33 1019.93 1019.55 1019.22 1018.94 1018.73 1018.59 1018.53 1018.52 1018.54 1018.57 1018.56 1018.48 1018.31 1018.04 1017.65 1017.16 1016.60 1016.01
1025.47 1025.36 1025.28 1025.22 1025.16 1025.08 1024.97 1024.82 1024.62 1024.36 1024.04 1023.69 1023.30 1022.89 1022.47 1022.05 1021.63 1021.20 1020.78 1020.36 1019.95 1019.56 1019.20 1018.88 1018.62 1018.42 1018.28 1018.20 1018.16 1018.13 1018.08 1017.99 1017.82 1017.57 1017.22 1016.78 1016.29 1015.77
1025.55 1025.46 1025.39 1025.35 1025.30 1025.23 1025.12 1024.95 1024.72 1024.42 1024.08 1023.69 1023.27 1022.84 1022.41 1021.98 1021.56 1021.15 1020.75 1020.34 1019.94 1019.56 1019.19 1018.85 1018.55 1018.30 1018.11 1017.97 1017.87 1017.80 1017.71 1017.60 1017.43 1017.20 1016.89 1016.52 1016.09 1015.63
1025.60 1025.53 1025.48 1025.44 1025.39 1025.31 1025.18 1024.99 1024.73 1024.40 1024.02 1023.60 1023.15 1022.70 1022.26 1021.84 1021.43 1021.03 1020.65 1020.27 1019.90 1019.53 1019.17 1018.83 1018.52 1018.25 1018.02 1017.85 1017.71 1017.59 1017.48 1017.35 1017.19 1016.98 1016.72 1016.39 1016.03 1015.64
1025.67 1025.61 1025.55 1025.50 1025.44 1025.33 1025.17 1024.94 1024.65 1024.29 1023.88 1023.43 1022.97 1022.50 1022.06 1021.63 1021.24 1020.86 1020.50 1020.16 1019.81 1019.47 1019.14 1018.81 1018.51 1018.24 1018.00 1017.80 1017.64 1017.50 1017.38 1017.25 1017.10 1016.92 1016.69 1016.42 1016.11 1015.78
1025.78 1025.69 1025.61 1025.53 1025.43 1025.29 1025.09 1024.83 1024.50 1024.12 1023.68 1023.22 1022.74 1022.27 1021.83 1021.41 1021.02 1020.67 1020.33 1020.01 1019.70 1019.39 1019.08 1018.78 1018.49 1018.23 1018.00 1017.80 1017.63 1017.49 1017.36 1017.24 1017.10 1016.95 1016.76 1016.54 1016.28 1016.00
1025.92 1025.79 1025.66 1025.53 1025.38 1025.19 1024.95 1024.66 1024.31 1023.91 1023.46 1022.99 1022.52 1022.05 1021.61 1021.20 1020.83 1020.48 1020.16 1019.86 1019.57 1019.28 1019.00 1018.72 1018.45 1018.20 1017.98 1017.78 1017.61 1017.47 1017.35 1017.24 1017.13 1017.01 1016.86 1016.69 1016.49 1016.25
1026.06 1025.87 1025.68 1025.49 1025.28 1025.05 1024.78 1024.46 1024.10 1023.69 1023.26 1022.80 1022.33 1021.88 1021.45 1021.05 1020.68 1020.34 1020.02 1019.73 1019.44 1019.16 1018.89 1018.62 1018.37 1018.12 1017.90 1017.71 1017.54 1017.41 1017.30 1017.20 1017.12 1017.02 1016.92 1016.80 1016.65 1016.47
1026.15 1025.90 1025.65 1025.40 1025.15 1024.88 1024.59 1024.27 1023.91 1023.52 1023.10 1022.66 1022.22 1021.79 1021.37 1020.97 1020.60 1020.25 1019.93 1019.62 1019.33 1019.05 1018.77 1018.50 1018.24 1017.99 1017.76 1017.57 1017.40 1017.26 1017.16 1017.07 1017.01 1016.95 1016.89 1016.82 1016.74 1016.62
1026.14 1025.83 1025.54 1025.25 1024.98 1024.70 1024.41 1024.11 1023.77 1023.41 1023.03 1022.62 1022.21 1021.79 1021.38 1020.98 1020.60 1020.24 1019.90 1019.57 1019.26 1018.95 1018.65 1018.36 1018.08 1017.82 1017.58 1017.37 1017.19 1017.04 1016.93 1016.85 1016.80 1016.77 1016.75 1016.74 1016.71 1016.66
1025.99 1025.66 1025.35 1025.06 1024.80 1024.54 1024.28 1024.02 1023.73 1023.41 1023.06 1022.70 1022.30 1021.90 1021.49 1021.08 1020.68 1020.30 1019.92 1019.57 1019.22 1018.89 1018.56 1018.24 1017.94 1017.66 1017.39 1017.15 1016.95 1016.78 1016.65 1016.57 1016.52 1016.51 1016.52 1016.54 1016.57 1016.58
1025.71 1025.40 1025.12 1024.86 1024.64 1024.44 1024.24 1024.02 1023.79 1023.52 1023.21 1022.87 1022.49 1022.09 1021.67 1021.24 1020.82 1020.40 1019.99 1019.60 1019.23 1018.86 1018.51 1018.17 1017.84 1017.53 1017.23 1016.96 1016.73 1016.53 1016.38 1016.27 1016.21 1016.19 1016.21 1016.26 1016.32 1016.38
1025.37 1025.11 1024.89 1024.71 1024.56 1024.43 1024.30 1024.15 1023.97 1023.75 1023.47 1023.14 1022.76 1022.34 1021.90 1021.44 1020.98 1020.53 1020.08 1019.66 1019.26 1018.87 1018.50 1018.14 1017.79 1017.46 1017.14 1016.84 1016.57 1016.33 1016.14 1015.99 1015.90 1015.86 1015.87 1015.91 1015.98 1016.06
1025.04 1024.87 1024.74 1024.65 1024.60 1024.55 1024.50 1024.42 1024.28 1024.08 1023.82 1023.48 1023.08 1022.62 1022.14 1021.64 1021.13 1020.64 1020.17 1019.72 1019.30 1018.91 1018.53 1018.17 1017.81 1017.46 1017.12 1016.80 1016.49 1016.21 1015.97 1015.77 1015.63 1015.55 1015.51 1015.53 1015.58 1015.64
1024.81 1024.74 1024.72 1024.73 1024.78 1024.82 1024.83 1024.79 1024.68 1024.49 1024.21 1023.84 1023.40 1022.89 1022.35 1021.80 1021.25 1020.72 1020.22 1019.76 1019.34 1018.95 1018.58 1018.22 1017.88 1017.53 1017.18 1016.83 1016.49 1016.17 1015.88 1015.63 1015.42 1015.27 1015.18 1015.13 1015.13 1015.15
Thickness
5608 5607 5607 5606 5605 5604 5603 5603 5601 5599 5594 5585 5582 5577 5573 5570 5565 5564 5562 5557 5554 5550 5547 5545 5542 5540 5537 5535 5533 5530 5528 5525 5523 5521 5519 5517 5516 5515
5592 5591 5592 5591 5590 5589 5589 5588 5586 5586 5583 5577 5571 5566 5561 5560 5555 5553 5552 5548 5545 5541 5537 5534 5531 5529 5526 5524 5521 5519 5516 5513 5511 5509 5507 5505 5503 5501
5580 5579 5576 5576 5577 5576 5575 5574 5573 5572 5569 5565 5561 5556 5550 5548 5546 5543 5542 5540 5538 5531 5527 5524 5521 5519 5516 5513 5510 5508 5505 5502 5500 5498 5495 5493 5491 5489
5567 5565 5564 5562 5561 5562 5561 5560 5558 5555 5555 5550 5549 5546 5541 5538 5535 5533 5533 5532 5528 5523 5518 5515 5512 5509 5506 5503 5500 5497 5495 5492 5490 5487 5485 5483 5481 5478
5555 5553 5551 5550 5549 5548 5547 5547 5546 5543 5540 5539 5538 5534 5533 5529 5526 5526 5525 5521 5521 5517 5512 5508 5504 5500 5497 5494 5491 5488 5486 5484 5481 5479 5476 5473 5471 5469
5542 5540 5539 5537 5535 5534 5534 5533 5532 5531 5530 5530 5529 5527 5524 5521 5518 5518 5517 5515 5512 5510 5506 5503 5498 5494 5491 5487 5484 5480 5478 5475 5473 5470 5468 5465 5463 5460
5531 5529 5526 5522 5519 5519 5521 5521 5521 5522 5523 5522 5521 5519 5516 5512 5511 5509 5508 5506 5505 5502 5500 5499 5496 5492 5487 5482 5478 5473 5470 5467 5465 5462 5460 5458 5455 5453
5522 5519 5517 5514 5510 5508 5506 5505 5504 5508 5510 5510 5512 5509 5505 5504 5501 5499 5499 5498 5498 5496 5493 5493 5492 5488 5484 5479 5471 5467 5463 5460 5458 5455 5453 5451 5449 5446
5512 5511 5511 5506 5504 5504 5501 5498 5497 5495 5492 5495 5498 5497 5496 5495 5491 5492 5491 5490 5488 5488 5487 5488 5487 5483 5480 5473 5466 5462 5458 5455 5452 5450 5447 5445 5442 5440
5503 5501 5500 5498 5495 5493 5496 5496 5495 5493 5489 5489 5489 5488 5488 5485 5483 5483 5483 5483 5484 5484 5482 5482 5482 5480 5477 5470 5463 5459 5455 5452 5448 5445 5442 5440 5438 5436
5495 5493 5491 5490 5483 5483 5486 5489 5489 5488 5485 5482 5481 5480 5479 5477 5476 5478 5482 5483 5484 5482 5479 5478 5478 5476 5474 5469 5463 5458 5454 5450 5446 5442 5439 5436 5434 5433
5490 5487 5480 5479 5476 5476 5480 5482 5483 5482 5482 5483 5481 5479 5478 5477 5474 5473 5477 5479 5479 5478 5475 5473 5473 5473 5471 5468 5464 5459 5454 5450 5446 5441 5437 5433 5430 5431
5486 5484 5478 5472 5471 5471 5471 5474 5472 5471 5477 5480 5481 5481 5480 5478 5477 5475 5474 5473 5473 5473 5472 5470 5469 5469 5467 5465 5464 5460 5455 5451 5447 5442 5437 5432 5428 5425
5478 5477 5471 5467 5466 5466 5467 5466 5467 5467 5475 5477 5478 5477 5477 5476 5475 5474 5472 5470 5468 5468 5466 5464 5465 5463 5464 5463 5462 5460 5456 5452 5448 5444 5439 5433 5429 5424
5469 5464 5463 5463 5463 5464 5463 5464 5465 5469 5471 5472 5473 5473 5473 5472 5472 5472 5472 5471 5470 5470 5468 5464 5463 5462 5462 5462 5461 5459 5457 5453 5449 5445 5441 5436 5431 5426
5466 5463 5460 5460 5461 5461 5462 5464 5465 5464 5464 5467 5468 5469 5470 5471 5472 5471 5472 5472 5472 5472 5469 5466 5463 5462 5463 5462 5461 5460 5457 5454 5451 5447 5443 5438 5434 5428
5460 5465 5465 5464 5464 5463 5463 5462 5461 5462 5463 5463 5464 5467 5468 5469 5470 5471 5470 5471 5472 5472 5471 5470 5468 5466 5465 5463 5463 5461 5459 5456 5452 5448 5445 5443 5438 5431
5456 5462 5461 5461 5460 5459 5459 5459 5459 5458 5458 5459 5461 5463 5465 5466 5467 5468 5470 5470 5471 5472 5472 5471 5471 5470 5469 5468 5459 5461 5460 5457 5454 5451 5449 5446 5442 5435
5457 5458 5457 5456 5455 5454 5454 5454 5454 5454 5453 5456 5458 5460 5462 5464 5466 5467 5469 5469 5470 5472 5473 5473 5472 5471 5471 5470 5467 5458 5459 5458 5456 5455 5452 5449 5446 5441
5456 5455 5453 5452 5451 5450 5450 5449 5450 5451 5452 5453 5455 5457 5459 5462 5464 5466 5468 5468 5469 5472 5474 5474 5473 5470 5469 5469 5469 5467 5460 5459 5458 5457 5455 5454 5452 5445
5453 5451 5449 5448 5447 5447 5446 5447 5447 5448 5449 5451 5453 5454 5457 5460 5463 5466 5468 5468 5469 5474 5474 5475 5473 5468 5470 5472 5473 5471 5468 5461 5458 5456 5455 5456 5456 5454
5449 5448 5447 5445 5444 5445 5445 5446 5447 5448 5449 5451 5453 5454 5457 5460 5463 5466 5469 5471 5473 5475 5476 5478 5477 5477 5477 5477 5476 5475 5473 5469 5465 5458 5454 5452 5452 5452
5446 5445 5445 5445 5444 5443 5444 5444 5445 5447 5448 5450 5452 5454 5457 5460 5463 5467 5470 5473 5475 5476 5478 5480 5480 5481 5481 5480 5479 5478 5476 5475 5474 5470 5466 5458 5454 5450